Location: Eenumerhoogte
(53.3420°N, 6.7843°E)
Time: 20:24:30
(UTC+00:00)

Cosmos 2322 Rocket - Pass Details

Date: 15 May 2026
Orbit: 831 x 850 km, 71.0° (Epoch: 8 June)

Event Time Altitude Azimuth Distance (km) Brightness Sun altitude
Rises 22:16:43 0° 321° (NW) 3,409 6.7 -15.9°
Reaches altitude 10° 22:19:42 10° 306° (NW) 2,472 5.4 -16.1°
Maximum altitude 22:23:49 21° 259° (W) 1,813 4.0 -16.2°
Enters shadow 22:27:34 11° 215° (SW) 2,372 4.2 -16.4°
